When you browse on this site, cookies collect data to enhance your experience and personalize the content and advertising you see.
Visit our Privacy Policy to learn more. By continuing to use the site, you agree to this use of cookies and data.
  • In Netherlands
  • List of Countries
  • For 7 days
  • Water Temperature
  • Satellite Maps
  • Weather Map
  • Weather Widgets
  • user-avatar
    Login

    Hourly Weather Shkoder

    Today, 27 June, Thursday

    Time Temperature Precipitation Wind Pressure Humidity
    00:00 +24°C° 0 mm 3 mps 743 mmHg 69%
    01:00 +24°C° 0 mm 3 mps 743 mmHg 67%
    02:00 +22°C° 0 mm 3 mps 743 mmHg 68%
    03:00 +22°C° 0 mm 3 mps 742 mmHg 70%
    04:00 +22°C° 0 mm 3 mps 742 mmHg 71%
    05:00 +24°C° 0 mm 3 mps 742 mmHg 69%
    06:00 +25°C° 0 mm 3 mps 742 mmHg 67%
    07:00 +27°C° 0 mm 2 mps 743 mmHg 65%
    08:00 +28°C° 0 mm 2 mps 742 mmHg 59%
    09:00 +30°C° 0 mm 2 mps 742 mmHg 53%
    10:00 +31°C° 0 mm 2 mps 742 mmHg 47%
    11:00 +31°C° 0 mm 2 mps 742 mmHg 45%
    12:00 +32°C° 0 mm 2 mps 741 mmHg 43%
    13:00 +34°C° 0 mm 2 mps 741 mmHg 42%
    14:00 +34°C° 0 mm 2 mps 741 mmHg 43%
    15:00 +34°C° 0 mm 2 mps 740 mmHg 44%
    16:00 +34°C° 0 mm 2 mps 740 mmHg 46%
    17:00 +31°C° 0 mm 1 mps 740 mmHg 52%
    18:00 +29°C° 0 mm 1 mps 739 mmHg 58%
    19:00 +28°C° 0 mm 1 mps 739 mmHg 64%
    20:00 +27°C° 0 mm 1 mps 739 mmHg 64%
    21:00 +26°C° 0 mm 1 mps 740 mmHg 65%
    22:00 +25°C° 0 mm 2 mps 740 mmHg 65%
    23:00 +25°C° 0 mm 2 mps 740 mmHg 66%

    Tomorrow, 28 June, Friday

    Time Temperature Precipitation Wind Pressure Humidity
    00:00 +24°C° 0 mm 2 mps 740 mmHg 67%
    01:00 +24°C° 0 mm 2 mps 739 mmHg 67%
    02:00 +24°C° 0 mm 2 mps 739 mmHg 68%
    03:00 +24°C° 0 mm 2 mps 739 mmHg 68%
    04:00 +23°C° 0 mm 2 mps 738 mmHg 68%
    05:00 +25°C° 0 mm 2 mps 739 mmHg 67%
    06:00 +26°C° 0 mm 2 mps 739 mmHg 66%
    07:00 +28°C° 0 mm 2 mps 739 mmHg 64%
    08:00 +29°C° 0 mm 2 mps 739 mmHg 60%
    09:00 +30°C° 0 mm 2 mps 739 mmHg 57%
    10:00 +31°C° 0 mm 3 mps 739 mmHg 53%
    11:00 +31°C° 0 mm 3 mps 739 mmHg 51%
    12:00 +33°C° 0 mm 3 mps 739 mmHg 50%
    13:00 +33°C° 0 mm 3 mps 739 mmHg 49%
    14:00 +33°C° 0 mm 3 mps 738 mmHg 49%
    15:00 +32°C° 0 mm 4 mps 738 mmHg 49%
    16:00 +32°C° 0 mm 4 mps 738 mmHg 49%
    17:00 +29°C° 0 mm 4 mps 738 mmHg 54%
    18:00 +27°C° 0 mm 4 mps 738 mmHg 58%
    19:00 +25°C° 0 mm 5 mps 739 mmHg 62%
    20:00 +23°C° 0 mm 5 mps 739 mmHg 64%
    21:00 +22°C° 0 mm 5 mps 739 mmHg 65%
    22:00 +21°C° 0 mm 4 mps 739 mmHg 67%
    23:00 +20°C° 0 mm 4 mps 739 mmHg 68%

    Day after tomorrow, 29 June, Saturday

    Time Temperature Precipitation Wind Pressure Humidity
    00:00 +20°C° 0 mm 4 mps 739 mmHg 69%
    01:00 +19°C° 0 mm 4 mps 739 mmHg 70%
    02:00 +18°C° 0 mm 4 mps 739 mmHg 71%
    03:00 +18°C° 0 mm 4 mps 739 mmHg 72%
    04:00 +18°C° 0 mm 4 mps 739 mmHg 73%
    05:00 +19°C° 0 mm 4 mps 739 mmHg 68%
    06:00 +20°C° 0 mm 4 mps 740 mmHg 64%
    07:00 +21°C° 0 mm 4 mps 740 mmHg 60%
    08:00 +23°C° 0 mm 4 mps 740 mmHg 56%
    09:00 +25°C° 0 mm 4 mps 740 mmHg 51%
    10:00 +26°C° 0 mm 4 mps 740 mmHg 47%
    11:00 +27°C° 0 mm 4 mps 740 mmHg 45%
    12:00 +28°C° 0 mm 4 mps 740 mmHg 44%
    13:00 +28°C° 0 mm 4 mps 740 mmHg 43%
    14:00 +28°C° 0 mm 4 mps 740 mmHg 43%
    15:00 +28°C° 0 mm 4 mps 740 mmHg 44%
    16:00 +28°C° 0 mm 4 mps 740 mmHg 45%
    17:00 +27°C° 0 mm 3 mps 740 mmHg 51%
    18:00 +25°C° 0 mm 3 mps 740 mmHg 58%
    19:00 +22°C° 0 mm 3 mps 741 mmHg 65%
    20:00 +21°C° 0 mm 3 mps 741 mmHg 65%
    21:00 +21°C° 0 mm 3 mps 741 mmHg 66%
    22:00 +20°C° 0 mm 3 mps 742 mmHg 67%
    23:00 +19°C° 0 mm 3 mps 742 mmHg 70%

    30 June, Sunday

    Time Temperature Precipitation Wind Pressure Humidity
    00:00 +19°C° 0 mm 3 mps 742 mmHg 72%
    01:00 +18°C° 0 mm 3 mps 742 mmHg 74%
    02:00 +18°C° 0 mm 3 mps 742 mmHg 75%
    03:00 +17°C° 0 mm 3 mps 741 mmHg 75%
    04:00 +17°C° 0 mm 3 mps 741 mmHg 75%
    05:00 +19°C° 0 mm 3 mps 742 mmHg 71%
    06:00 +20°C° 0 mm 3 mps 742 mmHg 67%
    07:00 +22°C° 0 mm 3 mps 742 mmHg 63%
    08:00 +24°C° 0 mm 3 mps 742 mmHg 59%
    09:00 +26°C° 0 mm 3 mps 742 mmHg 54%
    10:00 +27°C° 0 mm 3 mps 743 mmHg 49%
    11:00 +28°C° 0 mm 3 mps 742 mmHg 47%
    12:00 +29°C° 0 mm 3 mps 742 mmHg 45%
    13:00 +29°C° 0 mm 3 mps 742 mmHg 43%
    14:00 +29°C° 0 mm 3 mps 742 mmHg 44%
    15:00 +30°C° 0 mm 2 mps 742 mmHg 45%
    16:00 +30°C° 0 mm 2 mps 742 mmHg 45%
    17:00 +28°C° 0 mm 2 mps 742 mmHg 51%
    18:00 +26°C° 0 mm 2 mps 742 mmHg 57%
    19:00 +25°C° 0 mm 2 mps 742 mmHg 63%
    20:00 +24°C° 0 mm 2 mps 742 mmHg 63%
    21:00 +23°C° 0 mm 2 mps 742 mmHg 62%
    22:00 +21°C° 0 mm 2 mps 743 mmHg 62%
    23:00 +21°C° 0 mm 2 mps 743 mmHg 63%

    1 July, Monday

    Time Temperature Precipitation Wind Pressure Humidity
    00:00 +21°C° 0 mm 2 mps 742 mmHg 64%
    01:00 +20°C° 0 mm 2 mps 742 mmHg 65%
    02:00 +20°C° 0 mm 2 mps 742 mmHg 66%
    03:00 +20°C° 0 mm 2 mps 742 mmHg 66%
    04:00 +19°C° 0 mm 2 mps 742 mmHg 67%
    05:00 +21°C° 0 mm 2 mps 742 mmHg 64%
    06:00 +23°C° 0 mm 2 mps 742 mmHg 62%
    07:00 +25°C° 0 mm 1 mps 743 mmHg 60%
    08:00 +27°C° 0 mm 1 mps 743 mmHg 56%
    09:00 +28°C° 0 mm 1 mps 743 mmHg 51%
    10:00 +30°C° 0 mm 1 mps 742 mmHg 47%
    11:00 +31°C° 0 mm 1 mps 742 mmHg 45%
    12:00 +32°C° 0 mm 1 mps 742 mmHg 43%
    13:00 +32°C° 0 mm 1 mps 742 mmHg 41%
    14:00 +32°C° 0 mm 1 mps 742 mmHg 42%
    15:00 +32°C° 0 mm 1 mps 741 mmHg 44%
    16:00 +32°C° 0 mm 1 mps 741 mmHg 45%
    17:00 +30°C° 0 mm 1 mps 741 mmHg 52%
    18:00 +28°C° 0 mm 1 mps 741 mmHg 59%
    19:00 +26°C° 0 mm 1 mps 741 mmHg 66%
    20:00 +26°C° 0 mm 1 mps 741 mmHg 67%
    21:00 +25°C° 0 mm 1 mps 741 mmHg 67%
    22:00 +24°C° 0 mm 1 mps 741 mmHg 68%
    23:00 +24°C° 0 mm 1 mps 741 mmHg 66%

    2 July, Tuesday

    Time Temperature Precipitation Wind Pressure Humidity
    00:00 +24°C° 0 mm 1 mps 741 mmHg 65%
    01:00 +24°C° 0 mm 1 mps 741 mmHg 64%
    02:00 +23°C° 0 mm 1 mps 741 mmHg 64%
    03:00 +23°C° 0 mm 1 mps 740 mmHg 65%
    04:00 +23°C° 0 mm 1 mps 740 mmHg 65%
    05:00 +24°C° 0 mm 1 mps 740 mmHg 63%
    06:00 +26°C° 0 mm 1 mps 740 mmHg 61%
    07:00 +26°C° 0 mm 0 mps 740 mmHg 59%
    08:00 +27°C° 0 mm 0 mps 740 mmHg 56%
    09:00 +30°C° 0 mm 1 mps 740 mmHg 52%
    10:00 +32°C° 0 mm 1 mps 740 mmHg 49%
    11:00 +32°C° 0 mm 1 mps 739 mmHg 48%
    12:00 +34°C° 0 mm 2 mps 739 mmHg 46%
    13:00 +34°C° 0 mm 2 mps 739 mmHg 44%
    14:00 +34°C° 0 mm 2 mps 738 mmHg 46%
    15:00 +34°C° 0 mm 2 mps 738 mmHg 47%
    16:00 +34°C° 0 mm 2 mps 738 mmHg 48%
    17:00 +31°C° 0 mm 1 mps 738 mmHg 55%
    18:00 +29°C° 0 mm 1 mps 738 mmHg 61%
    19:00 +25°C° 0 mm 0 mps 738 mmHg 68%
    20:00 +27°C° 0 mm 1 mps 738 mmHg 68%
    21:00 +26°C° 0 mm 1 mps 738 mmHg 67%
    22:00 +25°C° 0 mm 1 mps 739 mmHg 67%
    23:00 +25°C° 0 mm 1 mps 738 mmHg 66%
    Show more